STARLINK-37261, 68567

Orbit data source: Space-Track

STARLINK-37261, 68567 is a payload satellite owned by SpaceX/Seattle (US) in LEO that was launched on Thu, 02 Apr 2026 UTC via an FALCON 9 launch vehicle from the Air Force Eastern Test Range (AFETR). Payload-class satellites include a variety of spacecraft equipped with specific instruments for various scientific and technological missions. These include communications satellites like Starlink; space stations such as the ISS; scientific satellites like the Hubble; Earth observation satellites from companies like Planet Labs, Umbra, and HawkEye 360; GPS; miniature CubeSats for education and research; and military/defense satellites.

Loading next visibility...
Identifier
68567, 2026-070AB
Orbit
LEO
Country
Flag of USUS
Related business
Manufacturer
SpaceX/Seattle
Mission
Operational spacecraft
Bus & Motor
STARLINK V2MO, Unknown motor
Mass
575 kg wet, ~530 kg dry
Launch date (UTC)
2026-04-02 (2 months ago)
Launch vehicle
FALCON 9
Launch site
Air Force Eastern Test Range (AFETR)
Object type
Payload
Rocket body
Debris
Shape & HBR
Unknown shape, 14.5 m
Radar Cross Section
RCS unknown

Expand to show TLE details & history
Last TLE update: 1 day ago

TLE from 1 day ago
0 STARLINK-37261
1 68567U 26070AB  26145.02757631  .00022652  00000-0  67914-3 0  9993
2 68567  53.1592   7.1805 0001020  99.0526 261.0592 15.34417667  8258
Epoch: 2026-05-25T00:39Z
TLE epoch observation values (Epoch: 2026-05-25T00:39:42.593Z)
Latitude
-0.00001°
Longitude
114.63176°
Altitude
463.661 km
Speed
7.636 km/s
True Right ascension
00h 28m 43s
True Declination
0° 00' 00"
Sunlit
Object was in daylight at epoch
Visualization orbit readout
Latitude
Unknown
Longitude
Unknown
Altitude
Unknown
Speed
Unknown
Apparent Right ascension
Unknown
Apparent Declination
Unknown
Sunlit
N/A
Visualization observer readout
Local Sidereal Time
10:22:08
Azimuth
Unknown
Elevation
Unknown
Doppler factor
Unknown
Orbital elements
Apogee altitude
463.606 km
Perigee altitude
462.21 km
Semi-major axis
6,841.045 km
Eccentricity
0.0001
Inclination
53.1592°
RAAN
7.1805°
Arg. of periapsis
99.0526°
True anomaly
261.04765°
Mean anomaly
261.0592°
Eccentric anomaly
261.05343°
Mean motion
3.83583 °/min
Orbital period
93.85 mins
BSTAR
0.00067914
Loading maneuver chart data...
Computing Atmospheric mass density...
Loading historical data...
Loading historical data...
Loading historical data...
Loading historical data...
Loading historical data...
Loading historical data...
Loading historical data...

Documentation

Showing up to 5 results
|